Location: Cabrera Baja
(40.4089°N, 4.3354°W)
Time: 03:21:53
(UTC+00:00)

Cosmos 2034 Rocket - Pass Details

Date: 14 July 2020
Orbit: 958 x 1000 km, 82.9° (Epoch: 03 August)

Event Time Altitude Azimuth Distance (km) Brightness Sun altitude
Exits shadow 03:53:48 - 188° (S) 3,159 6.2 -11.0°
Reaches altitude 10° 03:55:04 10° 189° (S) 2,682 5.9 -10.8°
Maximum altitude 04:01:12 82° 277° (W) 973 4.0 -9.9°
Drops below altitude 10° 04:07:24 10° 5° (N) 2,706 7.0 -9.0°
Sets 04:09:55 0° 7° (N) 3,660 7.8 -8.6°
